CMS-02

导读 | 豆包AI

CMS-02是印度空间研究组织于2022年6月22日发射的通信卫星,作为印度CMS系列通信卫星的成员,该卫星承担通信服务与区域覆盖任务,接替老化卫星维持天基通信能力。它采用成熟的通信卫星设计,配备多频段转发器,可提供稳定的通信传输服务,支撑印度军方与民用通信网络,强化了印度本土卫星通信体系,是印度自主航天布局中持续完善通信卫星组网的重要环节。

Basic Information
目录编号:
52903
目录名称:
CMS-02
国际标识:
2022-067A
轨道中心:
EARTH
卫星名称:
CMS-02
卫星全名:
--
卫星状态:
在轨 (已飞行1408 天)
发射日期:
2022-06-22 UTC
国别 :
印度 (IN)
星等 :
--
Orbit Information
数据来源 国际轨道数据 AOE轨道数据
星历时间 2026-04-30T06:23:21+0800
21小时前
查看轨道信息
2026-04-30T23:00:00+0800
4小时前
查看轨道信息
半长轴 42165.065km 42165.121km
偏心率 0.0002133 0.000214
轨道倾角 0.017° 0.020°
近地点辐角 194.242° 196.678°
升交点赤经 161.167° 161.053°
平近点角 281.338° 168.850°
近地点 35777.934km 35777.96km
远地点 35795.922km 35796.008km
周期 1436.114分钟 1436.117分钟
每日圈数 1.002706 1.002704
Detailed Information
使用方式:
暂无
2D Orbit Map
3D Orbit Map
Orbit Altitude Analysis Chart
Orbit Inclination Analysis Chart
Orbit Comprehensive Analysis Chart
View Comprehensive Chart